This is the latest recevied weather packets stored in our database for station/object KC4GS-13. If no packets are shown the sender has not sent any weather packets the latest 10 day(s).
| Time | Temp. | Humidity | Pressure | Rain* | Wind** | Luminosity | Snow |
|---|---|---|---|---|---|---|---|
| 1777986386 | 16.67° C | 85% | 1018.1 hPa | 0 mm | - | 87 W/m² | - |
| 1777986084 | 16.67° C | 86% | 1018.2 hPa | 0 mm | - | 42 W/m² | - |
| 1777985780 | 16.11° C | 87% | 1018.1 hPa | 0 mm | - | 41 W/m² | - |
| 1777985477 | 16.11° C | 88% | 1018.1 hPa | 0 mm | - | 39 W/m² | - |
| 1777985173 | 15.56° C | 89% | 1018.4 hPa | 0 mm | - | 38 W/m² | - |
| 1777984870 | 15° C | 90% | 1018 hPa | 0 mm | - | 39 W/m² | - |
| 1777984566 | 15° C | 91% | 1018 hPa | 0 mm | - | 40 W/m² | - |
| 1777984263 | 14.44° C | 92% | 1017.9 hPa | 0 mm | - | 44 W/m² | - |
| 1777983959 | 14.44° C | 93% | 1018 hPa | 0 mm | - | 38 W/m² | - |
| 1777983656 | 13.89° C | 93% | 1017.9 hPa | 0 mm | - | 32 W/m² | - |
| 1777983353 | 13.33° C | 93% | 1017.8 hPa | 0 mm | - | 31 W/m² | - |
| 1777983050 | 12.78° C | 93% | 1017.6 hPa | 0 mm | - | 30 W/m² | - |
| 1777982746 | 12.78° C | 93% | 1017.6 hPa | 0 mm | - | 28 W/m² | - |
| 1777982442 | 12.78° C | 93% | 1017.8 hPa | 0 mm | - | 27 W/m² | - |
| 1777982136 | 12.22° C | 93% | 1017.6 hPa | 0 mm | - | 27 W/m² | - |
| 1777981834 | 11.67° C | 93% | 1017.7 hPa | 0 mm | - | 26 W/m² | - |
| 1777981531 | 11.67° C | 93% | 1017.5 hPa | 0 mm | - | 23 W/m² | - |
| 1777981227 | 11.11° C | 93% | 1017.6 hPa | 0 mm | - | 22 W/m² | - |
| 1777980924 | 11.11° C | 93% | 1017.4 hPa | 0 mm | - | 21 W/m² | - |
| 1777980620 | 10.56° C | 92% | 1017.4 hPa | 0 mm | - | 19 W/m² | - |
| 1777980317 | 10.56° C | 92% | 1017.2 hPa | 0 mm | - | 18 W/m² | - |
| 1777980014 | 10.56° C | 92% | 1017.1 hPa | 0 mm | - | 15 W/m² | - |
| 1777979708 | 10.56° C | 92% | 1017.1 hPa | 0 mm | - | 14 W/m² | - |
| 1777979405 | 10.56° C | 92% | 1017.2 hPa | 0 mm | - | 11 W/m² | - |
| 1777979101 | 10.56° C | 92% | 1017.4 hPa | 0 mm | - | 10 W/m² | - |
* Rain latest hour (hover to see other rain measurements)
** Current wind speed in m/s (hover to see current wind gust speed)